Weather Roundup
Issued by NWS Springfield, MO

Home | Current Version | Previous Version | Text Only | Print | Product List | Glossary On
Versions: 1 2 3 4 5 6 7 8 9 10 11 12 13 14 15 16 17 18 19 20 21 22 23 24 25 26 27 28 29 30 31 32 33 34 35 36 37 38 39 40 41 42 43 44 45 46 47 48 49 50
000
NZUS99 KSGF 312007
HRRSGF

HOURLY WEATHER
NATIONAL WEATHER SERVICE SPRINGFIELD MO
300 PM CDT THU JUL 31 2014

......SGF CWA......

CITY           SKY/WX    TMP DP  RH WIND       PRES   REMARKS
SPRINGFIELD    PTSUNNY   78  62  57 SE5       30.08F
JOPLIN         PTSUNNY   79  63  57 NE6       30.08F
WEST PLAINS    CLOUDY    74  63  68 SW6       30.11F
ROLLA          PTSUNNY   83  52  34 VRB3      30.07F
OSAGE BEACH      N/A     82  57  42 N6        30.07F
BRANSON        CLOUDY    73  66  78 SE8       30.11F

......SURROUNDING SGF CWA......

CITY           SKY/WX    TMP DP  RH WIND       PRES   REMARKS
CHANUTE        PTSUNNY   80  60  50 SE3       30.08F
PARSONS        CLOUDY    80  63  55 NE3       30.09F
COFFEYVILLE    CLOUDY    81  63  54 N5        30.07F
EMPORIA        MOSUNNY   81  52  36 VRB3      30.09F
GROVE OK       CLOUDY    73  66  78 SE7       30.10F
ROGERS AR      HVY RAIN  68  64  88 NE7       30.12S FOG
SILOAM SPRINGS CLOUDY    66  61  82 S3        30.12S
HARRISON AR    CLOUDY    68  65  90 SE6       30.11F
NEAR YELLVILLE CLOUDY    70  64  83 CALM      30.11S

......KANSAS AND MISSOURI......

CITY           SKY/WX    TMP DP  RH WIND       PRES   REMARKS
KANSAS CTY INT PTSUNNY   83  57  41 N7        30.09F
DOWNTOWN KC    MOSUNNY   84  54  35 CALM      30.07F
COLUMBIA       MOSUNNY   84  55  36 VRB5      30.08F
SEDALIA        MOSUNNY   84  58  40 N7        30.09F
ST JOSEPH      SUNNY     82  57  42 SW8       30.08F
ST LOUIS       PTSUNNY   83  58  42 VRB3      30.08S
SPIRIT OF STL  PTSUNNY   86  54  33 N6        30.05F
KIRKSVILLE     SUNNY     83  54  36 CALM      30.09F
WICHITA        MOSUNNY   81  54  39 W3        30.09F
TOPEKA         MOSUNNY   85  53  33 VRB3      30.08F
OLATHE         MOSUNNY   82  55  39 E3        30.08F

......TENNESSEE......

CITY           SKY/WX    TMP DP  RH WIND       PRES   REMARKS
MEMPHIS        CLOUDY    79  64  60 N9        30.09F
NASHVILLE      PTSUNNY   83  54  36 VRB7G51   30.08F

......ARKANSAS.......

CITY           SKY/WX    TMP DP  RH WIND       PRES   REMARKS
FAYETTEVILLE   CLOUDY    71  65  81 CALM      30.10F
FT SMITH       CLOUDY    72  63  73 SE7       30.07S
LITTLE ROCK    LGT RAIN  74  65  73 E5        30.08F

......OKLAHOMA.......

CITY           SKY/WX    TMP DP  RH WIND       PRES   REMARKS
TULSA          LGT RAIN  73  68  84 N7        30.07S
PONCA CITY     CLOUDY    77  63  61 NE6       30.09F
MCALESTER      CLOUDY    70  66  87 VRB3      30.06S
OKLAHOMA CITY  PTSUNNY   75  66  73 N10       30.08F

......IOWA............

CITY           SKY/WX    TMP DP  RH WIND       PRES   REMARKS
DES MOINES     MOSUNNY   82  55  39 NW7       30.07S
QUAD CITIES    MOSUNNY   83  57  41 W8        30.05F

......ILLINOIS........

CITY           SKY/WX    TMP DP  RH WIND       PRES   REMARKS
QUINCY         SUNNY     81  58  45 CALM      30.08F
CHICAGO        MOSUNNY   84  53  34 W17G25    30.02F




USA.gov is the U.S. government's official web portal to all federal, state and local government web resources and services.